Change the Weather History Date:

Tuesday, March 11, 2014

  Actual Average (KMVN) Record (KMVN)
Temperature  
Mean Temperature 60 °F -  
Max Temperature 75 °F 48 °F 73 °F (2014)
Min Temperature 46 °F 30 °F 19 °F (1998)
Degree Days  
Heating Degree Days 4    
Growing Degree Days 10 (Base 50)    
Moisture  
Dew Point 49 °F    
Average Humidity 68    
Maximum Humidity 93    
Minimum Humidity 27    
Precipitation  
Precipitation 0.00 in - - ()
Sea Level Pressure  
Sea Level Pressure 29.64 in    
Wind  
Wind Speed 7 mph (SSW)    
Max Wind Speed 16 mph    
Max Gust Speed 21 mph    
Visibility 10 miles    
Events Rain    
Averages and records for this station are not official NWS values.
T = Trace of Precipitation, MM = Missing Value Source: NWS Daily Summary

Daily Weather History Graph

Daily Weather History Graph

Search for Another Location

Airport or City:

Trip Planner

Search our weather history database for the weather conditions in past years. The results will help you decide how hot, cold, wet, or windy it might be!

Date:

Astronomy

Mar. 11, 2014 Rise Set
Actual Time 7:10 AM CDT 6:56 PM CDT
Civil Twilight 6:44 AM CDT 7:23 PM CDT
Nautical Twilight 6:13 AM CDT 7:53 PM CDT
Astronomical Twilight 5:43 AM CDT 8:24 PM CDT
Moon 2:35 PM CDT (3/11) 4:01 AM CDT (3/11)
Length of Visible Light 12h 38m
Length of Day
11h 45m
Waxing Gibbous, 78% of the Moon is Illuminated
Mar 11
Waxing Gibbous
Mar 16
Full
Mar 23
Last Quarter
Mar 30
New
Apr 7
First Quarter

Hourly Weather History & Observations

Time (CDT) Temp. Windchill Dew Point Humidity Pressure Visibility Wind Dir Wind Speed Gust Speed Precip Events Conditions
12:15 AM 53.6 °F - 48.2 °F 82% 29.75 in 10.0 mi SSW 8.1 mph - N/A   Clear
12:35 AM 53.6 °F - 48.2 °F 82% 29.75 in 10.0 mi SSW 5.8 mph - N/A   Clear
12:55 AM 51.8 °F - 46.4 °F 82% 29.74 in 10.0 mi SSW 6.9 mph - N/A   Clear
1:15 AM 51.8 °F - 46.4 °F 82% 29.74 in 10.0 mi SSW 8.1 mph - N/A   Clear
1:35 AM 51.8 °F - 46.4 °F 82% 29.74 in 10.0 mi SSW 6.9 mph - N/A   Clear
1:55 AM 51.8 °F - 46.4 °F 82% 29.74 in 10.0 mi SSW 5.8 mph - N/A   Clear
2:15 AM 51.8 °F - 46.4 °F 82% 29.74 in 10.0 mi SSW 6.9 mph - N/A   Clear
2:35 AM 51.8 °F - 46.4 °F 82% 29.74 in 10.0 mi SSW 5.8 mph - N/A   Clear
2:55 AM 51.8 °F - 46.4 °F 82% 29.73 in 10.0 mi SW 5.8 mph - N/A   Clear
3:15 AM 51.8 °F - 46.4 °F 82% 29.72 in 10.0 mi SSW 5.8 mph - N/A   Clear
3:35 AM 51.8 °F - 46.4 °F 82% 29.72 in 10.0 mi SW 4.6 mph - N/A   Clear
3:55 AM 50.0 °F - 46.4 °F 87% 29.72 in 10.0 mi Calm Calm - N/A   Clear
4:16 AM 51.8 °F - 46.4 °F 82% 29.72 in 10.0 mi SSW 4.6 mph - N/A   Clear
4:35 AM 50.0 °F - 44.6 °F 82% 29.71 in 10.0 mi SSW 4.6 mph - N/A   Clear
4:55 AM 51.8 °F - 46.4 °F 82% 29.71 in 10.0 mi SSW 4.6 mph - N/A   Clear
5:15 AM 50.0 °F - 44.6 °F 82% 29.71 in 10.0 mi SSW 4.6 mph - N/A   Clear
5:35 AM 50.0 °F - 44.6 °F 82% 29.71 in 10.0 mi SSW 4.6 mph - N/A   Clear
5:55 AM 48.2 °F - 44.6 °F 87% 29.71 in 10.0 mi SSW 3.5 mph - N/A   Clear
6:15 AM 48.2 °F - 44.6 °F 87% 29.71 in 10.0 mi SSW 4.6 mph - N/A   Clear
6:35 AM 48.2 °F - 44.6 °F 87% 29.71 in 10.0 mi SSW 4.6 mph - N/A   Clear
6:55 AM 48.2 °F - 44.6 °F 87% 29.70 in 10.0 mi South 6.9 mph - N/A   Clear
7:15 AM 48.2 °F - 44.6 °F 87% 29.70 in 10.0 mi SSW 4.6 mph - N/A   Clear
7:35 AM 46.4 °F 43.5 °F 44.6 °F 93% 29.70 in 10.0 mi South 5.8 mph - N/A   Clear
7:56 AM 48.2 °F - 44.6 °F 87% 29.71 in 10.0 mi South 8.1 mph - N/A   Clear
8:15 AM 50.0 °F - 44.6 °F 82% 29.71 in 10.0 mi SSW 5.8 mph - N/A   Clear
8:35 AM 51.8 °F - 46.4 °F 82% 29.71 in 10.0 mi SSW 6.9 mph - N/A   Clear
8:55 AM 51.8 °F - 46.4 °F 82% 29.71 in 10.0 mi SSW 5.8 mph - N/A   Clear
9:15 AM 51.8 °F - 46.4 °F 82% 29.72 in 10.0 mi SSW 4.6 mph - N/A   Clear
9:35 AM 53.6 °F - 46.4 °F 77% 29.71 in 10.0 mi SSW 5.8 mph - N/A   Clear
9:55 AM 55.4 °F - 48.2 °F 77% 29.71 in 10.0 mi SSW 6.9 mph - N/A   Clear
10:15 AM 57.2 °F - 46.4 °F 67% 29.71 in 10.0 mi SW 8.1 mph - N/A   Clear
10:35 AM 60.8 °F - 48.2 °F 63% 29.70 in 10.0 mi SW 10.4 mph - N/A   Clear
10:55 AM 62.6 °F - 48.2 °F 59% 29.69 in 10.0 mi SW 9.2 mph - N/A   Clear
11:15 AM 62.6 °F - 48.2 °F 59% 29.68 in 10.0 mi SW 9.2 mph - N/A   Clear
11:36 AM 64.4 °F - 48.2 °F 56% 29.69 in 10.0 mi SW 8.1 mph - N/A   Clear
11:55 AM 66.2 °F - 48.2 °F 52% 29.68 in 10.0 mi SW 6.9 mph - N/A   Clear
12:15 PM 68.0 °F - 48.2 °F 49% 29.67 in 10.0 mi SW 5.8 mph - N/A   Clear
12:35 PM 69.8 °F - 50.0 °F 49% 29.68 in 10.0 mi SSW 8.1 mph - N/A   Clear
12:55 PM 71.6 °F - 50.0 °F 46% 29.67 in 10.0 mi SSW 9.2 mph - N/A   Clear
1:15 PM 71.6 °F - 50.0 °F 46% 29.66 in 10.0 mi SSW 6.9 mph - N/A   Clear
1:35 PM 71.6 °F - 50.0 °F 46% 29.65 in 10.0 mi SSW 9.2 mph - N/A   Clear
1:55 PM 73.4 °F - 48.2 °F 41% 29.63 in 10.0 mi South 8.1 mph - N/A   Clear
2:15 PM 75.2 °F - 46.4 °F 36% 29.61 in 10.0 mi South 10.4 mph - N/A   Clear
2:35 PM 75.2 °F - 42.8 °F 31% 29.61 in 10.0 mi SSW 12.7 mph 17.3 mph N/A   Clear
2:55 PM 75.2 °F - 41.0 °F 29% 29.60 in 10.0 mi SSW 15.0 mph 20.7 mph N/A   Clear
3:15 PM 75.2 °F - 41.0 °F 29% 29.59 in 10.0 mi SSW 16.1 mph - N/A   Clear
3:35 PM 75.2 °F - 42.8 °F 31% 29.59 in 10.0 mi SW 16.1 mph - N/A   Scattered Clouds
3:55 PM 75.2 °F - 42.8 °F 31% 29.58 in 10.0 mi SW 13.8 mph 18.4 mph N/A   Mostly Cloudy
4:15 PM 75.2 °F - 39.2 °F 27% 29.58 in 10.0 mi SW 9.2 mph - N/A   Scattered Clouds
4:35 PM 73.4 °F - 46.4 °F 38% 29.57 in 10.0 mi South 11.5 mph - N/A   Scattered Clouds
4:55 PM 73.4 °F - 46.4 °F 38% 29.56 in 10.0 mi South 10.4 mph - N/A   Scattered Clouds
5:15 PM 73.4 °F - 50.0 °F 44% 29.56 in 10.0 mi South 10.4 mph - N/A   Scattered Clouds
5:35 PM 71.6 °F - 48.2 °F 43% 29.56 in 10.0 mi South 9.2 mph - N/A   Clear
5:55 PM 71.6 °F - 50.0 °F 46% 29.55 in 10.0 mi South 10.4 mph - N/A   Scattered Clouds
6:15 PM 69.8 °F - 53.6 °F 56% 29.55 in 10.0 mi South 13.8 mph 17.3 mph N/A   Clear
6:35 PM 68.0 °F - 55.4 °F 64% 29.56 in 10.0 mi South 10.4 mph - N/A   Clear
6:55 PM 66.2 °F - 55.4 °F 68% 29.56 in 10.0 mi South 9.2 mph - N/A   Clear
7:15 PM 66.2 °F - 57.2 °F 73% 29.56 in 10.0 mi South 10.4 mph - N/A   Clear
7:35 PM 66.2 °F - 57.2 °F 73% 29.57 in 10.0 mi South 8.1 mph - N/A   Scattered Clouds
7:55 PM 64.4 °F - 57.2 °F 77% 29.56 in 10.0 mi South 6.9 mph - N/A   Clear
8:15 PM 64.4 °F - 57.2 °F 77% 29.55 in 10.0 mi South 5.8 mph - N/A Rain Light Rain
8:35 PM 64.4 °F - 57.2 °F 77% 29.55 in 10.0 mi South 3.5 mph - N/A   Drizzle
8:55 PM 64.4 °F - 57.2 °F 77% 29.55 in 10.0 mi Calm Calm - N/A   Scattered Clouds
9:15 PM 62.6 °F - 57.2 °F 82% 29.53 in 10.0 mi SE 3.5 mph - N/A   Clear
9:35 PM 62.6 °F - 57.2 °F 82% 29.53 in 10.0 mi South 3.5 mph - N/A   Scattered Clouds
9:55 PM 62.6 °F - 57.2 °F 82% 29.52 in 10.0 mi South 5.8 mph - N/A   Mostly Cloudy
10:15 PM 62.6 °F - 57.2 °F 82% 29.51 in 10.0 mi South 4.6 mph - N/A Rain Light Rain
10:35 PM 62.6 °F - 57.2 °F 82% 29.50 in 10.0 mi South 5.8 mph - N/A Rain Light Rain
10:55 PM 62.6 °F - 57.2 °F 82% 29.48 in 10.0 mi SSW 4.6 mph - N/A   Mostly Cloudy
11:15 PM 62.6 °F - 57.2 °F 82% 29.48 in 10.0 mi South 6.9 mph - N/A   Overcast
11:35 PM 62.6 °F - 57.2 °F 82% 29.46 in 10.0 mi South 9.2 mph - N/A   Overcast
11:55 PM 62.6 °F - 57.2 °F 82% 29.46 in 10.0 mi South 9.2 mph - N/A   Mostly Cloudy